Snowfall_Accumulation
1.3 3.7 8.3 3.9 2.5 3.2 4.0 4.5 3.5 2.2 1.2 1.5 2.2 1.9 0.8 0.7 0.7 0.7 0.5 0.5 0.6 0.4 0.3 0.3 0.2 0.1 0.1 0.1 0.1 0.2 0.2 0.2 0.2 0.3 0.1 0.0 0.0 0.0 0.1 0.1 0.2 0.0 0.1 0.0
4.0 6.6 2.4 1.2 1.8 3.4 4.9 5.8 3.9 2.4 1.0 2.0 3.2 2.4 1.5 1.1 1.3 1.3 1.1 1.1 0.8 0.4 0.3 0.2 0.3 0.2 0.1 0.2 0.2 0.2 0.2 0.3 0.4 0.3 0.1 0.1 0.1 0.0 0.1 0.1 0.1 0.0 0.1 0.0
7.7 3.8 1.0 2.0 3.4 5.3 5.7 5.4 3.7 3.8 2.5 1.5 3.1 5.2 2.7 1.6 1.1 1.2 1.3 1.2 1.2 0.8 0.6 0.4 0.3 0.4 0.2 0.2 0.3 0.3 0.3 0.3 0.4 0.3 0.2 0.1 0.2 0.0 0.1 0.1 0.1 0.0 0.1 0.1
3.7 1.6 1.5 3.3 4.7 5.1 7.2 2.4 2.1 3.4 5.2 7.3 5.7 11.1 5.1 2.7 1.8 1.6 2.0 2.3 2.1 1.3 0.9 0.6 0.4 0.4 0.4 0.3 0.2 0.3 0.4 0.4 0.2 0.3 0.3 0.2 0.2 0.1 0.2 0.1 0.1 0.1 0.1 0.3
5.6 1.9 2.1 5.2 3.7 3.7 4.2 1.6 2.1 3.3 7.1 9.4 5.4 9.6 7.4 2.6 3.9 3.1 3.0 3.2 3.4 2.4 1.3 1.0 0.7 0.6 0.5 0.3 0.3 0.3 0.4 0.4 0.4 0.3 0.4 0.5 0.4 0.2 0.1 0.2 0.2 0.1 0.2 0.1
3.3 1.6 2.4 2.7 1.3 1.6 2.5 2.5 3.1 4.8 11.3 18.9 7.8 8.6 8.7 7.5 7.4 4.5 3.0 3.1 3.1 3.0 1.9 1.5 1.1 0.8 0.5 0.5 0.4 0.3 0.5 0.4 0.4 0.3 0.4 0.6 0.6 0.4 0.4 0.4 0.3 0.1 0.1 0.1
9.1 4.3 2.2 2.3 5.0 4.0 5.1 18.0 28.1 29.2 27.9 16.7 4.7 6.9 9.8 7.2 5.4 5.1 4.6 4.2 3.7 3.3 3.2 2.2 1.9 1.5 1.1 1.1 1.1 1.0 1.0 1.1 0.9 0.6 0.6 0.7 0.8 0.9 0.8 0.6 0.7 0.3 0.2 0.3
12.4 13.2 3.2 2.2 4.6 7.4 7.5 13.5 21.6 20.1 14.2 8.1 5.3 8.2 9.3 5.2 4.7 4.3 4.3 4.1 3.6 3.8 3.4 3.6 2.5 2.2 1.4 1.4 1.3 1.1 1.1 1.2 1.4 1.0 0.8 0.6 0.7 0.9 0.7 0.7 0.7 0.6 0.3 0.3
10.7 10.1 1.9 1.6 2.0 4.2 10.5 12.4 8.6 16.1 11.9 9.1 8.2 7.2 5.9 2.7 2.7 3.2 3.2 3.2 3.9 4.4 4.1 3.7 3.7 3.5 2.4 2.3 1.4 1.3 1.3 1.3 1.3 1.5 0.7 0.7 0.6 0.8 0.8 0.8 0.9 0.6 0.6 0.5
8.0 11.1 4.1 1.3 2.3 3.0 4.8 5.6 11.4 19.9 17.8 12.4 8.0 7.2 8.8 6.4 5.3 4.4 3.6 4.0 4.2 4.5 4.8 4.6 4.4 4.7 3.6 2.5 2.3 1.6 1.2 1.3 1.3 1.3 1.5 1.4 1.4 0.9 0.8 0.8 0.9 0.9 0.6 0.6
5.5 11.1 9.5 3.7 7.4 8.8 6.9 9.4 13.1 15.6 14.0 14.4 10.6 9.7 8.6 7.2 6.0 5.5 4.8 4.4 4.9 5.1 5.3 5.8 5.4 5.1 4.1 2.4 2.7 2.1 1.6 1.3 1.1 1.1 1.3 1.6 1.6 1.5 0.9 0.9 1.2 0.8 0.9 0.6
4.4 8.6 12.2 6.0 2.5 2.5 4.2 7.5 11.3 18.1 14.4 11.1 11.4 10.2 5.1 4.2 4.2 4.5 4.7 4.9 4.7 4.6 4.8 5.2 5.1 4.9 4.4 4.1 3.0 2.2 2.3 2.0 1.3 1.1 1.2 1.3 1.7 1.4 1.5 1.3 1.2 1.1 0.9 0.9
7.6 12.0 14.5 7.5 4.6 2.8 5.2 5.5 7.3 11.4 15.8 12.7 12.5 10.3 4.3 3.2 3.0 3.7 4.3 4.8 4.7 4.5 4.2 4.1 4.2 4.3 4.8 4.9 3.2 2.8 2.4 2.3 1.6 1.3 1.3 1.4 1.6 1.4 1.4 1.4 1.3 1.2 1.2 1.1
7.1 11.5 11.1 10.5 8.6 7.9 7.8 6.2 6.5 14.0 19.9 12.3 9.1 8.7 6.1 4.9 4.8 4.7 4.6 4.7 5.0 4.9 4.6 4.5 5.0 5.4 4.9 4.7 4.4 3.5 3.3 3.3 2.5 1.4 1.2 1.4 1.3 1.3 1.2 1.2 1.2 1.2 1.2 1.3
4.8 9.2 5.9 4.1 3.1 4.3 5.4 5.5 5.9 10.4 10.9 12.0 8.2 7.4 7.0 6.6 6.4 5.9 5.1 4.7 4.4 4.5 4.6 4.7 5.1 5.6 5.0 4.8 4.2 3.9 2.9 2.8 2.4 2.2 1.6 1.3 1.0 1.2 1.2 1.3 1.3 1.1 1.1 1.1
3.8 6.9 5.0 4.8 2.4 2.9 4.5 3.9 4.2 5.5 6.5 7.9 6.6 7.2 6.1 5.7 4.5 4.7 4.7 4.6 4.9 5.6 5.3 5.2 5.2 5.1 4.5 5.1 4.9 4.2 3.3 2.7 2.3 2.4 2.4 1.8 1.1 1.1 1.0 1.2 1.4 1.2 1.3 1.3
4.8 6.0 9.5 6.7 3.3 5.3 7.6 5.9 5.5 6.2 6.6 7.1 9.2 8.0 5.5 5.0 5.3 5.8 5.1 4.9 5.1 5.6 5.7 5.6 5.1 5.7 5.5 5.3 5.2 5.1 4.8 3.4 2.7 2.4 2.5 2.2 2.1 1.7 1.1 1.5 1.6 1.8 1.5 1.7
4.9 6.3 11.2 9.1 6.0 8.5 6.8 4.5 4.8 5.4 6.2 6.2 6.9 6.5 5.6 5.7 5.8 5.4 5.1 5.5 5.5 5.4 5.6 5.6 5.6 5.1 5.1 5.2 4.8 4.9 4.8 3.6 3.3 3.0 2.5 2.5 2.5 2.3 2.3 2.2 2.3 2.0 2.0 1.9
3.3 6.4 13.3 11.9 8.4 5.7 3.7 3.2 5.1 6.0 7.1 6.4 6.3 5.6 5.0 4.3 3.8 4.2 4.2 4.6 5.7 5.9 5.9 5.9 6.0 6.0 4.7 4.7 4.6 4.7 4.6 4.3 3.4 3.4 3.4 3.0 3.1 3.0 2.5 2.8 2.7 2.4 2.3 2.3
2.5 5.1 12.2 12.4 10.6 7.0 4.9 2.8 3.1 4.1 7.3 4.6 4.8 5.6 5.2 4.5 5.7 6.4 5.1 5.1 5.0 5.1 5.3 5.1 5.1 5.3 3.9 4.1 4.4 4.4 4.5 4.4 4.7 4.3 3.7 3.6 3.3 3.5 3.2 2.8 3.1 3.0 3.2 3.3
4.7 7.3 10.7 9.9 10.0 6.1 4.5 2.5 1.8 6.3 11.1 4.8 5.2 5.8 5.7 6.9 8.4 7.4 6.0 5.6 5.6 5.3 5.2 4.6 4.4 4.9 4.9 5.2 4.6 4.9 4.6 5.1 6.1 4.4 3.4 3.3 3.3 4.0 4.0 3.3 3.2 4.1 3.9 3.8
5.1 6.5 6.9 7.4 10.1 8.0 4.1 3.1 6.3 8.5 5.5 5.0 5.1 5.3 6.1 6.2 5.7 5.8 5.8 5.8 5.5 5.4 5.1 4.7 4.7 4.9 4.8 5.3 5.8 6.2 6.3 5.7 5.3 4.7 4.2 4.2 4.3 4.4 3.8 3.8 4.0 4.3 4.4 4.5
5.3 6.8 7.8 7.9 8.5 7.5 5.8 6.3 6.4 5.7 5.5 5.0 5.2 5.2 5.3 5.4 5.2 5.3 5.5 5.5 5.4 5.3 5.1 4.9 4.7 4.2 3.9 4.4 4.8 6.3 6.8 6.7 6.1 5.1 4.7 4.5 4.8 4.4 4.7 4.1 4.4 4.1 4.0 4.0
4.3 3.4 4.9 6.1 5.5 5.2 4.8 4.5 4.4 4.6 5.3 4.8 4.7 4.6 4.6 5.0 4.8 4.7 4.7 4.7 4.7 4.7 4.9 5.0 5.0 4.4 3.9 4.3 4.8 5.8 6.2 6.5 6.7 6.7 6.3 5.8 5.2 5.7 5.1 5.0 4.8 4.8 5.0 5.0
4.0 3.4 4.0 4.8 3.9 3.7 3.6 3.7 4.2 3.9 3.5 3.3 3.1 3.3 3.9 4.3 4.4 4.4 4.5 4.6 4.7 4.7 4.8 4.9 5.1 4.7 4.4 4.1 4.7 4.9 5.4 5.8 6.2 6.4 6.5 6.3 6.0 6.3 6.3 5.9 5.7 5.9 6.4 6.5
4.8 5.4 6.4 6.2 4.4 5.2 4.6 3.3 3.1 3.2 3.0 2.9 2.9 2.8 2.8 3.4 4.1 3.8 4.0 4.2 4.6 4.9 4.7 4.8 4.4 4.3 4.4 4.2 4.4 4.7 4.8 5.2 5.9 6.0 5.6 6.1 6.4 5.9 6.0 6.2 6.4 5.8 5.8 5.8